This demonstration page uses our WeatherBlox Daily Observations layout. Learn more.

Left ArrowRight Arrow

39.01783, -85.05884

Hourly Observations for June 10, 2017

Temp ( °F °C ) Dew Point ( °F °C ) Humidity (%) Winds ( mph kmh ) Pressure ( in mb ) Visibility ( mi km ) Precip ( " mm )
12:52 am 00:52 Mostly Clear 66 18.9 55 12.8 68 68 SSW 8 13 29.94 1014 10 16 0.00 0.00
1:52 am 01:52 Clear 65 18.3 55 12.8 70 70 SSW 9 15 29.93 1013 10 16 0.00 0.00
2:52 am 02:52 Mostly Clear 63 17.2 55 12.8 76 76 SSW 8 13 29.94 1014 10 16 0.00 0.00
3:52 am 03:52 Clear 62 16.7 55 12.8 78 78 SSW 7 11 29.94 1014 10 16 0.00 0.00
4:52 am 04:52 Clear 61 16.1 55 12.8 81 81 SSW 8 13 29.95 1014 10 16 0.00 0.00
5:52 am 05:52 Partly Cloudy 61 16.1 55 12.8 81 81 SSW 7 11 29.97 1015 10 16 0.00 0.00
6:52 am 06:52 Partly Cloudy 61 16.1 55 12.8 81 81 SSW 5 7 29.99 1016 10 16 0.00 0.00
7:52 am 07:52 Mostly Cloudy 64 17.8 57 13.9 78 78 SSW 7 11 30.00 1016 10 16 0.00 0.00
8:52 am 08:52 Mostly Cloudy 69 20.6 58 14.4 68 68 SSW 6 9 30.02 1017 10 16 0.00 0.00
9:52 am 09:52 Mostly Cloudy 73 22.8 58 14.4 59 59 WSW 6 9 30.03 1017 10 16 0.00 0.00
10:52 am 10:52 Mostly Cloudy 76 24.4 58 14.4 54 54 WSW 7 11 30.03 1017 10 16 0.00 0.00
11:52 am 11:52 Mostly Cloudy 78 25.6 59 15 52 52 WSW 9 15 30.03 1017 10 16 0.00 0.00
12:52 pm 12:52 Mostly Cloudy 80 26.7 57 13.9 45 45 SW 9 15 30.03 1017 10 16 0.00 0.00
1:52 pm 13:52 Partly Cloudy 81 27.2 56 13.3 42 42 SSW 10 17 30.02 1017 10 16 0.00 0.00
2:52 pm 14:52 Mostly Cloudy 82 27.8 57 13.9 42 42 SSW 14 22 30.00 1016 10 16 0.00 0.00
3:52 pm 15:52 Partly Cloudy 83 28.3 57 13.9 41 41 SW 9 15 29.99 1016 10 16 0.00 0.00
4:52 pm 16:52 Partly Cloudy 83 28.3 56 13.3 40 40 SSW 12 19 29.98 1015 10 16 0.00 0.00
5:52 pm 17:52 Partly Cloudy 83 28.3 57 13.9 41 41 SSW 9 15 29.97 1015 10 16 0.00 0.00
6:52 pm 18:52 Mostly Sunny 82 27.8 57 13.9 42 42 SSW 10 17 29.97 1015 10 16 0.00 0.00
7:52 pm 19:52 Mostly Sunny 80 26.7 58 14.4 47 47 S 9 15 29.97 1015 10 16 0.00 0.00
8:52 pm 20:52 Mostly Sunny 75 23.9 60 15.6 60 60 S 9 15 29.97 1015 10 16 0.00 0.00
9:52 pm 21:52 Mostly Clear 73 22.8 59 15 62 62 SSW 7 11 29.98 1015 10 16 0.00 0.00
10:52 pm 22:52 Mostly Clear 70 21.1 59 15 68 68 S 7 11 30.00 1016 10 16 0.00 0.00
11:52 pm 23:52 Clear 68 20 59 15 73 73 SSW 6 9 30.01 1016 10 16 0.00 0.00

Powered by AerisWeather